GW5124 Weather Reports


time (UTC)temp
F
wind
direction
speed
knots
gust
knots
rain 1hr
in
rain 24hr
in
rain mn
in
humidity
%
barometer
mb
20260504033406 44 7 0.0 0.0 0.00 0.00 0.00 61 1016.1
20260504032903 44 7 0.0 0.0 0.00 0.00 0.00 60 1015.6
20260504032359 44 7 0.0 0.0 0.00 0.00 0.00 62 1015.8
20260504031856 44 17 0.0 0.0 0.00 0.00 0.00 62 1015.8
20260504031353 44 9 0.0 0.9 0.00 0.00 0.00 61 1015.9
20260504030849 44 46 0.0 0.0 0.00 0.00 0.00 59 1015.8
20260504030347 44 67 0.0 0.0 0.00 0.00 0.00 59 1015.8
20260504025843 43 38 0.0 0.0 0.00 0.00 0.00 64 1015.8
20260504025340 43 39 0.0 0.0 0.00 0.00 0.00 63 1015.8
20260504024836 43 145 0.0 0.0 0.00 0.00 0.00 63 1016.0
20260504024333 43 145 0.0 0.0 0.00 0.00 0.00 65 1016.2
20260504023830 42 142 0.0 0.0 0.00 0.00 0.00 64 1016.1
20260504023327 42 141 0.0 0.0 0.00 0.00 0.00 61 1015.9
20260504022822 41 145 0.0 0.0 0.00 0.00 0.00 61 1016.1
20260504022320 41 146 0.0 0.0 0.00 0.00 0.00 59 1015.9
20260504021816 41 139 0.0 0.0 0.00 0.00 0.00 62 1016.1
20260504021314 42 138 0.0 0.0 0.00 0.00 0.00 60 1016.2
20260504020810 42 142 0.0 0.0 0.00 0.00 0.00 60 1016.1
20260504020307 43 142 0.0 0.0 0.00 0.00 0.00 60 1016.1
20260504015803 43 138 0.0 0.0 0.00 0.00 0.00 58 1016.1
20260504015259 43 145 0.0 0.0 0.00 0.00 0.00 57 1016.2
20260504014755 44 145 0.0 0.0 0.00 0.00 0.00 58 1016.1
20260504014252 44 139 0.0 0.0 0.00 0.00 0.00 58 1016.0
20260504013750 45 142 0.0 0.0 0.00 0.00 0.00 55 1016.0
20260504013247 45 140 0.0 0.0 0.00 0.00 0.00 56 1015.8
20260504012743 45 139 0.0 0.0 0.00 0.00 0.00 56 1015.8
20260504012241 45 138 0.0 0.0 0.00 0.00 0.00 56 1015.5
20260504011738 46 183 0.0 0.0 0.00 0.00 0.00 54 1015.8
20260504011235 46 184 0.0 0.0 0.00 0.00 0.00 56 1015.8
20260504010731 46 184 0.0 0.0 0.00 0.00 0.00 56 1015.8
20260504010226 46 184 0.0 0.0 0.00 0.00 0.00 55 1015.6
20260504005723 46 184 0.0 0.0 0.00 0.00 0.00 54 1015.5
20260504005221 46 184 0.0 0.0 0.00 0.00 0.00 51 1015.4
20260504004718 47 186 0.0 0.0 0.00 0.00 0.00 53 1015.4
20260504004215 47 186 0.0 0.0 0.00 0.00 0.00 53 1015.4
20260504003712 47 186 0.0 0.0 0.00 0.00 0.00 47 1015.3
20260504003209 47 186 0.0 0.0 0.00 0.00 0.00 49 1015.5
20260504002705 47 186 0.0 0.0 0.00 0.00 0.00 48 1015.4
20260504002203 47 186 0.0 0.0 0.00 0.00 0.00 51 1015.4
20260504001701 47 179 0.0 0.0 0.00 0.00 0.00 54 1015.4
20260504001156 47 179 0.0 0.0 0.00 0.00 0.00 50 1015.5
20260504000653 47 182 0.0 0.0 0.00 0.00 0.00 48 1015.4
20260504000151 48 182 0.0 0.0 0.00 0.00 0.00 50 1015.5
20260503235649 48 182 0.0 0.0 0.00 0.00 0.00 47 1015.5
20260503235145 48 165 0.0 0.0 0.00 0.00 0.00 47 1015.4
20260503234644 48 197 0.0 0.0 0.00 0.00 0.00 46 1015.5
20260503234141 49 170 0.9 1.7 0.00 0.00 0.00 43 1015.5
20260503233638 49 190 0.0 0.9 0.00 0.00 0.00 44 1015.6
20260503233133 50 179 0.9 2.6 0.00 0.00 0.00 40 1015.9
20260503232631 50 190 0.9 1.7 0.00 0.00 0.00 39 1015.5
20260503232128 51 182 1.7 2.6 0.00 0.00 0.00 39 1015.6
20260503231626 51 225 0.0 0.9 0.00 0.00 0.00 38 1015.8
20260503231122 51 181 0.9 0.9 0.00 0.00 0.00 40 1015.9
20260503230619 51 243 0.0 0.9 0.00 0.00 0.00 39 1015.8
20260503230116 51 233 0.0 2.6 0.00 0.00 0.00 39 1015.9
20260503225614 51 188 3.5 5.2 0.00 0.00 0.00 38 1015.8
20260503225113 51 176 2.6 3.5 0.00 0.00 0.00 38 1015.8
20260503224611 51 194 0.9 2.6 0.00 0.00 0.00 38 1015.8
20260503224109 51 155 2.6 2.6 0.00 0.00 0.00 37 1015.8
20260503223607 52 130 1.7 6.1 0.00 0.00 0.00 36 1015.9
20260503223102 52 224 1.7 1.7 0.00 0.00 0.00 37 1015.9
20260503222600 52 160 4.3 6.1 0.00 0.00 0.00 36 1016.0
20260503222058 52 166 0.9 3.5 0.00 0.00 0.00 35 1015.6
20260503221555 52 242 0.0 1.7 0.00 0.00 0.00 35 1015.8
20260503221053 53 178 2.6 5.2 0.00 0.00 0.00 34 1015.6
20260503220549 53 153 1.7 2.6 0.00 0.00 0.00 35 1015.6
20260503220046 53 195 1.7 5.2 0.00 0.00 0.00 34 1015.5
20260503215543 53 172 2.6 6.1 0.00 0.00 0.00 35 1015.8
20260503215040 53 247 0.0 3.5 0.00 0.00 0.00 37 1015.6
20260503214538 53 180 2.6 5.2 0.00 0.00 0.00 35 1015.9
20260503214034 53 147 2.6 3.5 0.00 0.00 0.00 36 1015.6
20260503213533 53 257 0.0 3.5 0.00 0.00 0.00 35 1015.6
20260503213029 53 244 0.9 2.6 0.00 0.00 0.00 34 1015.9
20260503212527 53 235 0.9 2.6 0.00 0.00 0.00 35 1015.6
20260503212024 53 225 0.9 3.5 0.00 0.00 0.00 35 1015.9
20260503211521 53 338 0.9 1.7 0.00 0.00 0.00 37 1015.8
20260503211017 52 241 0.9 5.2 0.00 0.00 0.00 35 1016.0
20260503210514 53 203 1.7 2.6 0.00 0.00 0.00 33 1016.0
20260503210009 54 179 4.3 7.0 0.00 0.00 0.00 34 1015.9
20260503205506 53 236 0.9 6.1 0.00 0.00 0.00 34 1016.1
20260503205002 54 207 7.0 7.8 0.00 0.00 0.00 33 1015.8
20260503204500 54 195 1.7 6.1 0.00 0.00 0.00 34 1015.9
20260503203956 53 198 3.5 5.2 0.00 0.00 0.00 35 1015.9
20260503203454 53 247 0.9 3.5 0.00 0.00 0.00 35 1016.3
20260503202950 52 285 2.6 7.0 0.00 0.00 0.00 37 1016.2
20260503202448 53 96 0.0 5.2 0.00 0.00 0.00 36 1016.3
20260503201946 52 167 3.5 3.5 0.00 0.00 0.00 37 1016.2
20260503201444 53 272 3.5 5.2 0.00 0.00 0.00 34 1016.4
20260503200941 52 165 3.5 5.2 0.00 0.00 0.00 36 1016.4
20260503200437 52 211 4.3 7.8 0.00 0.00 0.00 35 1016.6
20260503195934 52 251 1.7 5.2 0.00 0.00 0.00 36 1016.5
20260503195432 53 205 3.5 5.2 0.00 0.00 0.00 35 1016.5
20260503194928 53 159 1.7 2.6 0.00 0.00 0.00 34 1016.7
20260503194425 52 195 1.7 3.5 0.00 0.00 0.00 33 1016.8
20260503193920 51 211 1.7 3.5 0.00 0.00 0.00 37 1016.8
20260503193416 52 228 0.9 6.1 0.00 0.00 0.00 36 1017.2
20260503192912 52 176 3.5 7.0 0.00 0.00 0.00 35 1017.2
20260503192408 51 289 0.0 6.1 0.00 0.00 0.00 37 1017.2
20260503191904 52 222 2.6 7.0 0.00 0.00 0.00 35 1017.3
20260503191402 52 219 3.5 7.8 0.00 0.00 0.00 34 1017.3
20260503190858 51 152 3.5 7.0 0.00 0.00 0.00 35 1017.5
20260503190355 52 155 6.1 7.8 0.00 0.00 0.00 34 1017.4
20260503185852 51 141 2.6 3.5 0.00 0.00 0.00 33 1017.4
20260503185348 51 288 5.2 6.1 0.00 0.00 0.00 33 1017.6
20260503184848 51 255 3.5 7.0 0.00 0.00 0.00 33 1017.5
20260503184344 50 184 3.5 3.5 0.00 0.00 0.00 34 1017.6
20260503183840 50 312 2.6 3.5 0.00 0.00 0.00 36 1017.7
20260503183338 50 245 3.5 7.8 0.00 0.00 0.00 36 1017.8
20260503182835 51 147 5.2 7.8 0.00 0.00 0.00 35 1017.7
20260503182334 51 195 2.6 6.1 0.00 0.00 0.00 36 1017.7
20260503181830 50 224 1.7 3.5 0.00 0.00 0.00 39 1017.5
20260503181328 50 145 2.6 6.1 0.00 0.00 0.00 37 1017.5
20260503180824 50 221 2.6 5.2 0.00 0.00 0.00 37 1017.6
20260503180322 49 198 2.6 5.2 0.00 0.00 0.00 37 1017.8
20260503175818 48 195 1.7 6.1 0.00 0.00 0.00 39 1017.6
20260503175316 51 204 3.5 8.7 0.00 0.00 0.00 36 1017.8
20260503174811 49 228 1.7 3.5 0.00 0.00 0.00 38 1017.9
20260503174310 51 254 1.7 6.1 0.00 0.00 0.00 37 1018.1
20260503173805 50 192 1.7 7.0 0.00 0.00 0.00 36 1018.4
20260503173301 49 214 1.7 6.1 0.00 0.00 0.00 40 1018.1
20260503172758 47 219 1.7 8.7 0.00 0.00 0.00 42 1018.2
20260503172256 49 264 3.5 7.0 0.00 0.00 0.00 41 1018.1
20260503171752 49 287 0.9 6.1 0.00 0.00 0.00 40 1018.2
20260503171249 48 216 2.6 7.0 0.00 0.00 0.00 40 1018.2
20260503170746 47 218 1.7 1.7 0.00 0.00 0.00 44 1018.2
20260503170243 47 25 2.6 2.6 0.00 0.00 0.00 41 1018.4
20260503160205 45 258 4.3 8.7 0.00 0.00 0.00 44 1019.0
20260503150635 42 234 3.5 5.2 0.00 0.00 0.00 50 1019.2
20260503150131 44 239 0.9 2.6 0.00 0.00 0.00 48 1019.0
20260503131025 37 238 3.5 5.2 0.00 0.00 0.00 69 1018.8
20260503130522 37 192 1.7 3.5 0.00 0.00 0.00 70 1018.7
20260503110412 29 158 0.0 0.9 0.00 0.00 0.00 95 1017.2
20260503090303 29 166 0.0 0.0 0.00 0.00 0.00 91 1016.0
20260503081237 30 155 0.0 0.0 0.00 0.00 0.00 86 1015.9
20260503080732 30 146 0.0 0.0 0.00 0.00 0.00 86 1015.8
20260503080229 30 146 0.9 0.9 0.00 0.00 0.00 87 1016.0
20260503072706 31 139 0.0 0.9 0.00 0.00 0.00 81 1015.5
20260503072203 32 160 0.0 0.0 0.00 0.00 0.00 83 1015.6
20260503071700 32 196 0.0 0.0 0.00 0.00 0.00 82 1015.3
20260503071156 32 140 0.0 0.0 0.00 0.00 0.00 82 1015.5
20260503070653 32 112 0.0 2.6 0.00 0.00 0.00 81 1015.5
20260503070152 33 134 0.0 0.0 0.00 0.00 0.00 83 1015.4
20260503060115 35 195 0.0 1.7 0.00 0.00 0.00 78 1015.2
20260503055107 35 167 0.0 1.7 0.00 0.00 0.00 77 1015.5
20260503054603 35 1 0.0 0.9 0.00 0.00 0.00 77 1015.4
20260503054100 35 49 0.9 1.7 0.00 0.00 0.00 77 1015.6
20260503053558 35 119 0.9 1.7 0.00 0.00 0.00 77 1015.5
20260503053056 35 90 0.9 6.1 0.00 0.00 0.00 76 1015.3
20260503052552 35 244 2.6 2.6 0.00 0.00 0.00 76 1015.3
20260503052049 36 157 1.7 3.5 0.00 0.00 0.00 76 1015.4
20260503051544 36 14 0.0 1.7 0.00 0.00 0.00 77 1015.4
20260503051042 36 118 0.9 2.6 0.00 0.00 0.00 76 1015.4
20260503050537 36 193 0.9 1.7 0.00 0.00 0.00 76 1015.3
20260503050035 36 117 0.9 0.9 0.00 0.00 0.00 76 1015.2
20260503045532 36 168 0.9 1.7 0.00 0.00 0.00 77 1015.2
20260503045030 36 147 0.9 1.7 0.00 0.00 0.00 75 1015.2
20260503044526 36 96 0.9 1.7 0.00 0.00 0.00 76 1015.2
20260503044024 36 152 0.9 1.7 0.00 0.00 0.00 75 1015.1
20260503043520 35 157 0.0 0.9 0.00 0.00 0.00 76 1015.3
20260503043016 35 152 0.0 1.7 0.00 0.00 0.00 76 1015.2
20260503042513 35 203 0.0 0.0 0.00 0.00 0.00 77 1015.1
20260503042009 36 128 0.0 0.0 0.00 0.00 0.00 75 1015.0
20260503041507 36 174 0.0 1.7 0.00 0.00 0.00 73 1015.1
20260503041005 36 174 0.9 1.7 0.00 0.00 0.00 73 1015.1
20260503040502 36 186 0.0 1.7 0.00 0.00 0.00 73 1015.1
20260503035958 37 276 0.9 1.7 0.00 0.00 0.00 71 1015.1
20260503035455 37 127 0.0 1.7 0.00 0.00 0.00 71 1015.0
20260503034953 37 128 1.7 2.6 0.00 0.00 0.00 70 1015.1
20260503034450 37 131 2.6 3.5 0.00 0.00 0.00 70 1015.1
20260503033947 37 249 0.0 3.5 0.00 0.00 0.00 69 1014.9